Location: Les Chemineaux
(47.3024°N, 1.5104°E)
Time: 20:09:03
(UTC+00:00)

Cosmos 2082 Rocket - Pass Details

Date: 19 May 2025
Orbit: 831 x 853 km, 71.0° (Epoch: 21 June)

Event Time Altitude Azimuth Distance (km) Brightness Sun altitude
Exits shadow 23:23:30 11° 243° (WSW) 2,344 4.3 -22.4°
Maximum altitude 23:28:20 36° 308° (NW) 1,302 3.5 -22.5°
Drops below altitude 10° 23:33:30 10° 14° (NNE) 2,458 5.6 -22.6°
Sets 23:36:10 0° 24° (NNE) 3,399 6.4 -22.6°
